Weather in Anisimovka

Russia / Primorsky Krai     43°10′12″N   132°47′22″E
temp.,
°C
wind,
m/s
gust,
m/s
humid.,
%
clouds,
%
prec.,
mm/h
press.,
hPa
HPBL,
m
18 may, wed
wed1801:00+6ese22665 0.0 101419
04:00+6ese227076 0.0 101420
07:00+8ese22655 0.0 101449
10:00+18wsw134327 0.0 1012897
13:00+19w4542100 0.0 10121475
16:00+17wnw345297 0.1 1012817
19:00+16n126498 0.1 1012222
22:00+12ese1178100 0.1 101415
19 may, thu
thu1901:00+10e2295100 1.3 101449
04:00+10e239388 1.3 101359
07:00+11e11885 0.0 101331
10:00+18w11535 0.0 1012952
13:00+20w43405 0.0 10101974
16:00+20w34355 0.0 10091258
19:00+16wsw365749 0.0 1009559
22:00+11sw1275100 0.0 101146
20 may, fri
fri2001:00+9w1194100 0.1 101025
04:00+9nw119561 0.1 100811
07:00+10nnw11925 0.0 100957
10:00+19nnw383317 0.0 10081480
13:00+23nnw46245 0.0 10082139
16:00+24w45275 0.0 10072220
19:00+19wsw23515 0.0 1007156
22:00+11ssw116770 0.0 100913
21 may, sat
sat2101:00+11se115181 0.0 100913
04:00+10ese226197 0.0 100730
07:00+12ese2266100 0.0 100652
10:00+21s134444 0.0 1005608
13:00+20wnw2449100 0.0 1004838
16:00+18wnw5770100 0.3 1004850
19:00+13se1195100 3.8 100357
22:00+11sse119581 3.8 100410
22 may, sun
sun2201:00+11se1197100 0.0 100415
04:00+10nnw1199100 1.1 100412
07:00+11nnw1298100 2.6 1006107
10:00+14nnw3783100 2.7 1006848
13:00+15nnw575996 0.1 10061427
16:00+18nnw574861 0.1 10061948
19:00+16n46550 0.0 10071257
22:00+9ne11790 0.0 101014